Total_Precipitation_Accumulation
1.78 2.01 1.62 0.95 0.76 0.68 0.57 0.50 0.44 0.44 0.44 0.52 0.53 0.60 0.66 0.65 0.62 0.67 0.78 0.84 0.86 0.88 0.95 1.22 1.63 1.90 2.29 2.70 2.83 2.87 2.83 3.01 3.24 3.13 2.92 2.68 2.42 2.21 1.99 1.83 1.68 1.57 1.47 1.39
1.71 1.45 0.89 0.67 0.71 0.74 0.69 0.63 0.51 0.47 0.45 0.54 0.53 0.56 0.55 0.59 0.59 0.61 0.70 0.76 0.76 0.72 0.82 1.09 1.41 1.74 1.96 2.50 2.80 2.83 2.92 3.06 3.23 3.12 3.02 2.95 2.80 2.58 2.34 2.16 1.87 1.67 1.55 1.46
1.27 0.90 0.73 0.87 0.92 0.86 0.77 0.66 0.53 0.53 0.59 0.55 0.52 0.57 0.48 0.48 0.51 0.52 0.64 0.72 0.70 0.66 0.74 0.93 1.17 1.48 1.63 1.98 2.39 2.58 2.65 2.86 3.02 3.20 3.48 3.48 3.31 2.90 2.43 2.14 1.98 1.82 1.77 1.67
1.06 0.74 0.86 1.09 1.04 0.84 0.76 0.53 0.53 0.55 0.68 0.70 0.55 0.71 0.49 0.43 0.47 0.49 0.61 0.69 0.69 0.66 0.70 0.86 1.04 1.19 1.37 1.59 1.94 2.29 2.51 2.65 2.71 2.83 3.13 3.27 3.14 2.74 2.35 2.10 2.07 2.09 2.00 1.94
1.03 0.76 0.92 1.16 0.95 0.78 0.69 0.49 0.59 0.65 0.73 0.74 0.51 0.61 0.52 0.42 0.50 0.52 0.59 0.67 0.70 0.71 0.77 0.86 0.94 0.97 1.10 1.32 1.68 1.99 2.24 2.46 2.51 2.47 2.62 2.88 3.03 2.92 2.72 2.46 2.30 2.20 2.12 1.99
0.76 0.75 0.95 1.01 0.85 0.83 0.76 0.78 0.91 0.99 1.20 1.15 0.50 0.50 0.48 0.47 0.56 0.56 0.56 0.66 0.73 0.80 0.84 0.86 0.89 0.90 0.97 1.11 1.35 1.64 1.89 2.22 2.40 2.37 2.44 2.54 2.64 2.76 2.71 2.46 2.39 2.29 2.24 2.11
1.02 0.99 0.94 1.00 1.22 1.17 1.17 1.57 1.96 1.90 1.68 0.97 0.30 0.35 0.49 0.44 0.49 0.52 0.56 0.64 0.70 0.71 0.73 0.73 0.73 0.76 0.88 1.01 1.13 1.35 1.48 1.73 2.03 2.17 2.22 2.27 2.36 2.45 2.54 2.49 2.40 2.36 2.21 2.07
1.14 1.20 0.91 0.98 1.30 1.35 1.18 1.40 1.53 1.33 0.87 0.46 0.25 0.38 0.47 0.40 0.41 0.46 0.50 0.58 0.69 0.74 0.74 0.73 0.70 0.76 0.89 0.95 1.02 1.15 1.28 1.41 1.65 1.86 1.91 1.94 2.09 2.18 2.18 2.25 2.21 2.18 2.12 2.02
0.87 0.93 0.72 0.76 0.91 1.04 1.13 1.04 0.83 1.04 0.75 0.52 0.36 0.32 0.36 0.35 0.38 0.42 0.44 0.49 0.61 0.67 0.67 0.71 0.74 0.79 0.84 0.89 0.95 1.03 1.13 1.17 1.30 1.53 1.65 1.73 1.78 1.81 1.77 1.77 1.78 1.83 1.88 1.89
0.80 0.91 0.77 0.80 1.01 1.06 0.99 0.86 0.94 1.25 1.05 0.74 0.39 0.30 0.44 0.43 0.43 0.43 0.43 0.46 0.55 0.62 0.67 0.70 0.74 0.72 0.73 0.78 0.84 0.93 0.96 0.95 1.02 1.16 1.28 1.44 1.52 1.52 1.56 1.55 1.50 1.48 1.48 1.54
0.69 0.92 0.99 0.96 1.07 0.87 0.77 0.89 0.98 1.00 0.83 0.85 0.57 0.41 0.41 0.43 0.44 0.46 0.50 0.50 0.56 0.60 0.69 0.74 0.77 0.73 0.70 0.75 0.81 0.84 0.81 0.82 0.86 0.95 1.02 1.09 1.21 1.28 1.33 1.33 1.25 1.25 1.21 1.19
0.57 0.80 0.95 0.77 0.57 0.52 0.59 0.61 0.76 1.04 0.80 0.65 0.61 0.41 0.29 0.33 0.37 0.43 0.51 0.51 0.52 0.55 0.62 0.68 0.73 0.71 0.71 0.74 0.78 0.82 0.77 0.76 0.78 0.83 0.84 0.88 0.97 1.10 1.15 1.18 1.12 1.06 1.06 1.00
0.63 0.82 0.98 0.84 0.70 0.64 0.62 0.47 0.57 0.83 1.01 0.76 0.68 0.43 0.26 0.29 0.34 0.40 0.48 0.49 0.49 0.50 0.54 0.56 0.58 0.62 0.66 0.69 0.73 0.79 0.78 0.71 0.69 0.70 0.70 0.75 0.83 0.92 0.97 0.99 1.00 0.94 0.96 0.90
0.77 0.75 0.80 0.80 0.63 0.60 0.56 0.45 0.54 0.99 1.19 0.68 0.44 0.36 0.29 0.31 0.34 0.37 0.41 0.43 0.44 0.43 0.41 0.43 0.47 0.51 0.55 0.60 0.65 0.69 0.72 0.71 0.72 0.69 0.65 0.68 0.72 0.84 0.88 0.85 0.88 0.87 0.92 0.94
0.66 0.72 0.53 0.45 0.32 0.36 0.41 0.45 0.54 0.75 0.67 0.63 0.36 0.31 0.32 0.31 0.34 0.36 0.34 0.33 0.32 0.30 0.30 0.33 0.35 0.37 0.42 0.46 0.51 0.56 0.61 0.64 0.69 0.70 0.67 0.66 0.67 0.75 0.81 0.75 0.75 0.78 0.81 0.92
0.42 0.57 0.48 0.41 0.27 0.30 0.40 0.41 0.43 0.48 0.49 0.49 0.36 0.33 0.26 0.27 0.30 0.29 0.25 0.23 0.21 0.21 0.22 0.22 0.23 0.24 0.26 0.30 0.36 0.42 0.49 0.54 0.61 0.64 0.66 0.65 0.64 0.68 0.77 0.76 0.73 0.74 0.78 0.87
0.33 0.45 0.59 0.46 0.26 0.35 0.45 0.37 0.40 0.45 0.44 0.45 0.50 0.41 0.26 0.25 0.25 0.23 0.22 0.19 0.17 0.15 0.15 0.15 0.15 0.16 0.18 0.21 0.25 0.30 0.36 0.42 0.48 0.55 0.60 0.64 0.67 0.70 0.77 0.79 0.79 0.83 0.90 0.96
0.27 0.41 0.67 0.52 0.33 0.41 0.32 0.21 0.26 0.35 0.35 0.31 0.34 0.30 0.24 0.23 0.22 0.21 0.20 0.17 0.14 0.13 0.14 0.16 0.16 0.16 0.17 0.17 0.18 0.20 0.27 0.34 0.39 0.43 0.51 0.55 0.61 0.65 0.69 0.76 0.82 0.87 0.92 0.97
0.18 0.44 0.77 0.60 0.39 0.25 0.20 0.19 0.25 0.34 0.38 0.28 0.25 0.21 0.21 0.19 0.17 0.18 0.17 0.16 0.16 0.14 0.14 0.15 0.14 0.15 0.16 0.16 0.16 0.18 0.23 0.31 0.36 0.42 0.49 0.53 0.62 0.66 0.70 0.77 0.80 0.84 0.90 0.94
0.20 0.38 0.76 0.65 0.51 0.31 0.21 0.13 0.14 0.28 0.46 0.25 0.20 0.19 0.19 0.18 0.24 0.21 0.15 0.15 0.16 0.14 0.13 0.15 0.15 0.15 0.17 0.20 0.22 0.24 0.27 0.32 0.36 0.42 0.50 0.52 0.61 0.71 0.75 0.78 0.78 0.76 0.81 0.87
0.31 0.49 0.64 0.53 0.48 0.24 0.14 0.08 0.12 0.38 0.50 0.23 0.18 0.18 0.17 0.18 0.23 0.19 0.15 0.13 0.13 0.14 0.14 0.14 0.16 0.18 0.23 0.28 0.30 0.32 0.36 0.40 0.41 0.43 0.47 0.47 0.52 0.59 0.63 0.65 0.67 0.68 0.69 0.70
0.23 0.31 0.29 0.31 0.44 0.32 0.15 0.12 0.25 0.32 0.19 0.14 0.13 0.13 0.14 0.16 0.17 0.17 0.16 0.14 0.14 0.18 0.17 0.17 0.19 0.20 0.22 0.29 0.35 0.37 0.36 0.38 0.38 0.39 0.43 0.44 0.46 0.50 0.53 0.55 0.58 0.60 0.59 0.58
0.20 0.26 0.29 0.29 0.32 0.24 0.17 0.19 0.20 0.16 0.13 0.12 0.12 0.12 0.12 0.15 0.16 0.16 0.16 0.14 0.12 0.16 0.18 0.16 0.17 0.18 0.19 0.23 0.29 0.37 0.37 0.35 0.35 0.38 0.42 0.43 0.41 0.43 0.47 0.48 0.50 0.50 0.49 0.48
0.17 0.14 0.20 0.22 0.19 0.16 0.16 0.16 0.16 0.16 0.15 0.13 0.11 0.09 0.08 0.11 0.13 0.14 0.14 0.14 0.13 0.13 0.15 0.15 0.14 0.16 0.19 0.20 0.22 0.26 0.29 0.30 0.32 0.33 0.35 0.38 0.40 0.38 0.37 0.39 0.42 0.45 0.46 0.46
0.15 0.15 0.18 0.22 0.18 0.17 0.17 0.16 0.14 0.13 0.11 0.08 0.07 0.07 0.08 0.10 0.12 0.14 0.15 0.16 0.15 0.15 0.14 0.16 0.15 0.16 0.18 0.17 0.19 0.19 0.20 0.22 0.26 0.29 0.30 0.31 0.33 0.34 0.34 0.33 0.35 0.40 0.42 0.48
0.15 0.17 0.23 0.26 0.18 0.20 0.19 0.14 0.11 0.09 0.08 0.07 0.06 0.06 0.07 0.09 0.10 0.09 0.10 0.13 0.15 0.15 0.15 0.15 0.15 0.15 0.16 0.17 0.18 0.18 0.18 0.20 0.23 0.25 0.26 0.28 0.29 0.30 0.31 0.31 0.30 0.34 0.37 0.43